Location: Garden of he Gods Recreation Area
(37.6010°N, 88.3780°W)
Time: 20:22:50
(UTC-05:00)

ISS - Visible Passes

Search period start: 19 October 2019 00:00
Search period end: 29 October 2019 00:00
Orbit: 411 x 421 km, 51.6° (Epoch: 19 October)

Date Brightness Start Highest point End Pass type
(mag) Time Alt. Az. Time Alt. Az. Time Alt. Az.
22 Oct -0.6 05:59:37 10° SSE 06:01:11 13° SE 06:02:44 10° E visible
24 Oct -2.4 05:57:15 10° SSW 06:00:24 38° SE 06:03:33 10° ENE visible
25 Oct -1.5 05:11:16 20° SSE 05:11:54 21° SE 05:14:31 10° E visible
26 Oct -3.8 05:58:24 31° WSW 05:59:47 65° NW 06:03:08 10° NE visible
27 Oct -2.2 05:12:21 36° ENE 05:12:21 36° ENE 05:14:30 10° NE visible
27 Oct -1.9 06:45:47 10° WNW 06:48:10 18° NNW 06:50:34 10° NNE visible
28 Oct -2.5 05:59:03 25° NW 05:59:20 25° NNW 06:02:13 10° NNE visible
